Year,Month,Day,Hour,Minute,Value (Times are PST for temperature in C)
2018,06,14,00,00,10.30
2018,06,14,00,01,10.30
2018,06,14,00,02,10.30
2018,06,14,00,03,10.30
2018,06,14,00,04,10.40
2018,06,14,00,05,10.40
2018,06,14,00,06,10.40
2018,06,14,00,07,10.40
2018,06,14,00,08,10.40
2018,06,14,00,09,10.30
2018,06,14,00,10,10.40
2018,06,14,00,11,10.50
2018,06,14,00,12,10.50
2018,06,14,00,13,10.50
2018,06,14,00,14,10.40
2018,06,14,00,15,10.40
2018,06,14,00,16,10.30
2018,06,14,00,17,10.30
2018,06,14,00,18,10.20
2018,06,14,00,19,10.20
2018,06,14,00,20,10.20
2018,06,14,00,21,10.20
2018,06,14,00,22,10.30
2018,06,14,00,23,10.30
2018,06,14,00,24,10.20
2018,06,14,00,25,10.20
2018,06,14,00,26,10.10
2018,06,14,00,27,10.10
2018,06,14,00,28,10.10
2018,06,14,00,29,10.10
2018,06,14,00,30,10.10
2018,06,14,00,31,10.10
2018,06,14,00,32,10.10
2018,06,14,00,33,10.10
2018,06,14,00,34,10.20
2018,06,14,00,35,10.10
2018,06,14,00,36,10.10
2018,06,14,00,37,10.10
2018,06,14,00,38,10.00
2018,06,14,00,39,10.00
2018,06,14,00,40,10.00
2018,06,14,00,41,9.90
2018,06,14,00,42,9.90
2018,06,14,00,43,10.00
2018,06,14,00,44,10.00
2018,06,14,00,45,10.10
2018,06,14,00,46,10.20
2018,06,14,00,47,10.20
2018,06,14,00,48,10.10
2018,06,14,00,49,10.00
2018,06,14,00,50,10.00
2018,06,14,00,51,9.90
2018,06,14,00,52,9.80
2018,06,14,00,53,9.80
2018,06,14,00,54,9.70
2018,06,14,00,55,9.70
2018,06,14,00,56,9.70
2018,06,14,00,57,9.70
2018,06,14,00,58,9.60
2018,06,14,00,59,9.60
2018,06,14,01,00,9.60
2018,06,14,01,01,9.60
2018,06,14,01,02,9.60
2018,06,14,01,03,9.60
2018,06,14,01,04,9.60
2018,06,14,01,05,9.60
2018,06,14,01,06,9.60
2018,06,14,01,07,9.60
2018,06,14,01,08,9.60
2018,06,14,01,09,9.60
2018,06,14,01,10,9.60
2018,06,14,01,11,9.60
2018,06,14,01,12,9.60
2018,06,14,01,13,9.60
2018,06,14,01,14,9.50
2018,06,14,01,15,9.50
2018,06,14,01,16,9.40
2018,06,14,01,17,9.40
2018,06,14,01,18,9.40
2018,06,14,01,19,9.40
2018,06,14,01,20,9.30
2018,06,14,01,21,9.30
2018,06,14,01,22,9.30
2018,06,14,01,23,9.30
2018,06,14,01,24,9.30
2018,06,14,01,25,9.30
2018,06,14,01,26,9.30
2018,06,14,01,27,9.30
2018,06,14,01,28,9.30
2018,06,14,01,29,9.30
2018,06,14,01,30,9.30
2018,06,14,01,31,9.30
2018,06,14,01,32,9.30
2018,06,14,01,33,9.20
2018,06,14,01,34,9.20
2018,06,14,01,35,9.20
2018,06,14,01,36,9.20
2018,06,14,01,37,9.20
2018,06,14,01,38,9.20
2018,06,14,01,39,9.20
2018,06,14,01,40,9.20
2018,06,14,01,41,9.10
2018,06,14,01,42,9.10
2018,06,14,01,43,9.10
2018,06,14,01,44,9.10
2018,06,14,01,45,9.10
2018,06,14,01,46,9.10
2018,06,14,01,47,9.10
2018,06,14,01,48,9.10
2018,06,14,01,49,9.20
2018,06,14,01,50,9.20
2018,06,14,01,51,9.20
2018,06,14,01,52,9.30
2018,06,14,01,53,9.20
2018,06,14,01,54,9.20
2018,06,14,01,55,9.20
2018,06,14,01,56,9.10
2018,06,14,01,57,9.10
2018,06,14,01,58,9.10
2018,06,14,01,59,9.10
2018,06,14,02,00,9.00
2018,06,14,02,01,9.10
2018,06,14,02,02,9.10
2018,06,14,02,03,9.10
2018,06,14,02,04,9.10
2018,06,14,02,05,9.10
2018,06,14,02,06,9.10
2018,06,14,02,07,9.00
2018,06,14,02,08,9.00
2018,06,14,02,09,9.00
2018,06,14,02,10,9.00
2018,06,14,02,11,9.00
2018,06,14,02,12,9.10
2018,06,14,02,13,9.00
2018,06,14,02,14,9.00
2018,06,14,02,15,9.00
2018,06,14,02,16,8.90
2018,06,14,02,17,8.90
2018,06,14,02,18,8.90
2018,06,14,02,19,8.80
2018,06,14,02,20,8.80
2018,06,14,02,21,8.80
2018,06,14,02,22,8.80
2018,06,14,02,23,8.80
2018,06,14,02,24,8.80
2018,06,14,02,25,8.70
2018,06,14,02,26,8.70
2018,06,14,02,27,8.70
2018,06,14,02,28,8.60
2018,06,14,02,29,8.60
2018,06,14,02,30,8.60
2018,06,14,02,31,8.60
2018,06,14,02,32,8.60
2018,06,14,02,33,8.60
2018,06,14,02,34,8.60
2018,06,14,02,35,8.50
2018,06,14,02,36,8.50
2018,06,14,02,37,8.50
2018,06,14,02,38,8.60
2018,06,14,02,39,8.60
2018,06,14,02,40,8.60
2018,06,14,02,41,8.60
2018,06,14,02,42,8.60
2018,06,14,02,43,8.60
2018,06,14,02,44,8.70
2018,06,14,02,45,8.70
2018,06,14,02,46,8.60
2018,06,14,02,47,8.70
2018,06,14,02,48,8.70
2018,06,14,02,49,8.70
2018,06,14,02,50,8.70
2018,06,14,02,51,8.70
2018,06,14,02,52,8.70
2018,06,14,02,53,8.70
2018,06,14,02,54,8.70
2018,06,14,02,55,8.70
2018,06,14,02,56,8.70
2018,06,14,02,57,8.80
2018,06,14,02,58,8.80
2018,06,14,02,59,8.80
2018,06,14,03,00,8.80
2018,06,14,03,01,8.80
2018,06,14,03,02,8.90
2018,06,14,03,03,8.90
2018,06,14,03,04,8.80
2018,06,14,03,05,8.80
2018,06,14,03,06,8.80
2018,06,14,03,07,8.80
2018,06,14,03,08,8.70
2018,06,14,03,09,8.70
2018,06,14,03,10,8.70
2018,06,14,03,11,8.60
2018,06,14,03,12,8.60
2018,06,14,03,13,8.60
2018,06,14,03,14,8.50
2018,06,14,03,15,8.50
2018,06,14,03,16,8.50
2018,06,14,03,17,8.50
2018,06,14,03,18,8.40
2018,06,14,03,19,8.40
2018,06,14,03,20,8.40
2018,06,14,03,21,8.40
2018,06,14,03,22,8.40
2018,06,14,03,23,8.40
2018,06,14,03,24,8.40
2018,06,14,03,25,8.40
2018,06,14,03,26,8.40
2018,06,14,03,27,8.50
2018,06,14,03,28,8.50
2018,06,14,03,29,8.60
2018,06,14,03,30,8.60
2018,06,14,03,31,8.60
2018,06,14,03,32,8.60
2018,06,14,03,33,8.60
2018,06,14,03,34,8.60
2018,06,14,03,35,8.70
2018,06,14,03,36,8.70
2018,06,14,03,37,8.70
2018,06,14,03,38,8.70
2018,06,14,03,39,8.70
2018,06,14,03,40,8.70
2018,06,14,03,41,8.70
2018,06,14,03,42,8.80
2018,06,14,03,43,8.80
2018,06,14,03,44,8.80
2018,06,14,03,45,8.80
2018,06,14,03,46,8.80
2018,06,14,03,47,8.80
2018,06,14,03,48,8.80
2018,06,14,03,49,8.80
2018,06,14,03,50,8.80
2018,06,14,03,51,8.80
2018,06,14,03,52,8.70
2018,06,14,03,53,8.70
2018,06,14,03,54,8.70
2018,06,14,03,55,8.70
2018,06,14,03,56,8.70
2018,06,14,03,57,8.70
2018,06,14,03,58,8.70
2018,06,14,03,59,8.70
2018,06,14,04,00,8.70
2018,06,14,04,01,8.80
2018,06,14,04,02,8.80
2018,06,14,04,03,8.80
2018,06,14,04,04,8.80
2018,06,14,04,05,8.80
2018,06,14,04,06,8.80
2018,06,14,04,07,8.80
2018,06,14,04,08,8.80
2018,06,14,04,09,8.80
2018,06,14,04,10,8.80
2018,06,14,04,11,8.80
2018,06,14,04,12,8.90
2018,06,14,04,13,8.90
2018,06,14,04,14,8.90
2018,06,14,04,15,8.90
2018,06,14,04,16,8.90
2018,06,14,04,17,8.90
2018,06,14,04,18,9.00
2018,06,14,04,19,9.00
2018,06,14,04,20,9.00
2018,06,14,04,21,9.00
2018,06,14,04,22,9.10
2018,06,14,04,23,9.10
2018,06,14,04,24,9.10
2018,06,14,04,25,9.10
2018,06,14,04,26,9.10
2018,06,14,04,27,9.10
2018,06,14,04,28,9.10
2018,06,14,04,29,9.10
2018,06,14,04,30,9.10
2018,06,14,04,31,9.10
2018,06,14,04,32,9.10
2018,06,14,04,33,9.10
2018,06,14,04,34,9.10
2018,06,14,04,35,9.10
2018,06,14,04,36,9.10
2018,06,14,04,37,9.10
2018,06,14,04,38,9.10
2018,06,14,04,39,9.00
2018,06,14,04,40,9.00
2018,06,14,04,41,9.00
2018,06,14,04,42,8.90
2018,06,14,04,43,8.90
2018,06,14,04,44,8.90
2018,06,14,04,45,8.90
2018,06,14,04,46,8.90
2018,06,14,04,47,8.90
2018,06,14,04,48,8.90
2018,06,14,04,49,8.90
2018,06,14,04,50,8.90
2018,06,14,04,51,8.90
2018,06,14,04,52,8.90
2018,06,14,04,53,8.90
2018,06,14,04,54,8.90
2018,06,14,04,55,8.90
2018,06,14,04,56,8.90
2018,06,14,04,57,8.90
2018,06,14,04,58,8.90
2018,06,14,04,59,8.90
2018,06,14,05,00,8.90
2018,06,14,05,01,8.90
2018,06,14,05,02,8.90
2018,06,14,05,03,8.90
2018,06,14,05,04,8.90
2018,06,14,05,05,8.90
2018,06,14,05,06,8.90
2018,06,14,05,07,8.90
2018,06,14,05,08,8.90
2018,06,14,05,09,8.90
2018,06,14,05,10,9.00
2018,06,14,05,11,9.00
2018,06,14,05,12,9.10
2018,06,14,05,13,9.10
2018,06,14,05,14,9.10
2018,06,14,05,15,9.10
2018,06,14,05,16,9.20
2018,06,14,05,17,9.20
2018,06,14,05,18,9.20
2018,06,14,05,19,9.20
2018,06,14,05,20,9.20
2018,06,14,05,21,9.20
2018,06,14,05,22,9.20
2018,06,14,05,23,9.20
2018,06,14,05,24,9.20
2018,06,14,05,25,9.20
2018,06,14,05,26,9.20
2018,06,14,05,27,9.20
2018,06,14,05,28,9.20
2018,06,14,05,29,9.20
2018,06,14,05,30,9.20
2018,06,14,05,31,9.20
2018,06,14,05,32,9.10
2018,06,14,05,33,9.10
2018,06,14,05,34,9.10
2018,06,14,05,35,9.10
2018,06,14,05,36,9.10
2018,06,14,05,37,9.10
2018,06,14,05,38,9.10
2018,06,14,05,39,9.20
2018,06,14,05,40,9.10
2018,06,14,05,41,9.10
2018,06,14,05,42,9.20
2018,06,14,05,43,9.20
2018,06,14,05,44,9.20
2018,06,14,05,45,9.20
2018,06,14,05,46,9.20
2018,06,14,05,47,9.20
2018,06,14,05,48,9.20
2018,06,14,05,49,9.20
2018,06,14,05,50,9.20
2018,06,14,05,51,9.20
2018,06,14,05,52,9.20
2018,06,14,05,53,9.20
2018,06,14,05,54,9.20
2018,06,14,05,55,9.20
2018,06,14,05,56,9.20
2018,06,14,05,57,9.20
2018,06,14,05,58,9.20
2018,06,14,05,59,9.20
2018,06,14,06,00,9.20
2018,06,14,06,01,9.20
2018,06,14,06,02,9.20
2018,06,14,06,03,9.30
2018,06,14,06,04,9.30
2018,06,14,06,05,9.30
2018,06,14,06,06,9.30
2018,06,14,06,07,9.30
2018,06,14,06,08,9.30
2018,06,14,06,09,9.30
2018,06,14,06,10,9.40
2018,06,14,06,11,9.40
2018,06,14,06,12,9.40
2018,06,14,06,13,9.40
2018,06,14,06,14,9.50
2018,06,14,06,15,9.50
2018,06,14,06,16,9.50
2018,06,14,06,17,9.50
2018,06,14,06,18,9.60
2018,06,14,06,19,9.60
2018,06,14,06,20,9.60
2018,06,14,06,21,9.60
2018,06,14,06,22,9.60
2018,06,14,06,23,9.60
2018,06,14,06,24,9.70
2018,06,14,06,25,9.70
2018,06,14,06,26,9.70
2018,06,14,06,27,9.70
2018,06,14,06,28,9.70
2018,06,14,06,29,9.80
2018,06,14,06,30,9.80
2018,06,14,06,31,9.80
2018,06,14,06,32,9.80
2018,06,14,06,33,9.90
2018,06,14,06,34,9.90
2018,06,14,06,35,9.90
2018,06,14,06,36,9.90
2018,06,14,06,37,10.00
2018,06,14,06,38,10.00
2018,06,14,06,39,10.00
2018,06,14,06,40,10.10
2018,06,14,06,41,10.10
2018,06,14,06,42,10.10
2018,06,14,06,43,10.20
2018,06,14,06,44,10.20
2018,06,14,06,45,10.30
2018,06,14,06,46,10.30
2018,06,14,06,47,10.30
2018,06,14,06,48,10.30
2018,06,14,06,49,10.30
2018,06,14,06,50,10.40
2018,06,14,06,51,10.40
2018,06,14,06,52,10.40
2018,06,14,06,53,10.40
2018,06,14,06,54,10.50
2018,06,14,06,55,10.50
2018,06,14,06,56,10.60
2018,06,14,06,57,10.60
2018,06,14,06,58,10.60
2018,06,14,06,59,10.60
2018,06,14,07,00,10.70
2018,06,14,07,01,10.70
2018,06,14,07,02,10.70
2018,06,14,07,03,10.80
2018,06,14,07,04,10.80
2018,06,14,07,05,10.80
2018,06,14,07,06,10.90
2018,06,14,07,07,10.90
2018,06,14,07,08,11.00
2018,06,14,07,09,11.00
2018,06,14,07,10,11.10
2018,06,14,07,11,11.10
2018,06,14,07,12,11.10
2018,06,14,07,13,11.20
2018,06,14,07,14,11.20
2018,06,14,07,15,11.20
2018,06,14,07,16,11.20
2018,06,14,07,17,11.30
2018,06,14,07,18,11.30
2018,06,14,07,19,11.40
2018,06,14,07,20,11.40
2018,06,14,07,21,11.50
2018,06,14,07,22,11.50
2018,06,14,07,23,11.60
2018,06,14,07,24,11.60
2018,06,14,07,25,11.70
2018,06,14,07,26,11.70
2018,06,14,07,27,11.70
2018,06,14,07,28,11.80
2018,06,14,07,29,11.80
2018,06,14,07,30,11.90
2018,06,14,07,31,11.90
2018,06,14,07,32,12.00
2018,06,14,07,33,12.00
2018,06,14,07,34,12.10
2018,06,14,07,35,12.10
2018,06,14,07,36,12.20
2018,06,14,07,37,12.20
2018,06,14,07,38,12.20
2018,06,14,07,39,12.30
2018,06,14,07,40,12.30
2018,06,14,07,41,12.30
2018,06,14,07,42,12.40
2018,06,14,07,43,12.40
2018,06,14,07,44,12.40
2018,06,14,07,45,12.40
2018,06,14,07,46,12.50
2018,06,14,07,47,12.50
2018,06,14,07,48,12.50
2018,06,14,07,49,12.50
2018,06,14,07,50,12.60
2018,06,14,07,51,12.60
2018,06,14,07,52,12.60
2018,06,14,07,53,12.60
2018,06,14,07,54,12.60
2018,06,14,07,55,12.60
2018,06,14,07,56,12.60
2018,06,14,07,57,12.60
2018,06,14,07,58,12.60
2018,06,14,07,59,12.60
2018,06,14,08,00,12.60
2018,06,14,08,01,12.60
2018,06,14,08,02,12.60
2018,06,14,08,03,12.60
2018,06,14,08,04,12.60
2018,06,14,08,05,12.60
2018,06,14,08,06,12.60
2018,06,14,08,07,12.60
2018,06,14,08,08,12.60
2018,06,14,08,09,12.70
2018,06,14,08,10,12.70
2018,06,14,08,11,12.70
2018,06,14,08,12,12.80
2018,06,14,08,13,12.80
2018,06,14,08,14,12.80
2018,06,14,08,15,12.90
2018,06,14,08,16,12.90
2018,06,14,08,17,12.90
2018,06,14,08,18,12.90
2018,06,14,08,19,12.90
2018,06,14,08,20,12.90
2018,06,14,08,21,13.00
2018,06,14,08,22,13.00
2018,06,14,08,23,13.10
2018,06,14,08,24,13.10
2018,06,14,08,25,13.10
2018,06,14,08,26,13.10
2018,06,14,08,27,13.10
2018,06,14,08,28,13.00
2018,06,14,08,29,13.00
2018,06,14,08,30,13.10
2018,06,14,08,31,13.10
2018,06,14,08,32,13.20
2018,06,14,08,33,13.30
2018,06,14,08,34,13.30
2018,06,14,08,35,13.30
2018,06,14,08,36,13.30
2018,06,14,08,37,13.30
2018,06,14,08,38,13.30
2018,06,14,08,39,13.30
2018,06,14,08,40,13.40
2018,06,14,08,41,13.40
2018,06,14,08,42,13.40
2018,06,14,08,43,13.40
2018,06,14,08,44,13.40
2018,06,14,08,45,13.40
2018,06,14,08,46,13.40
2018,06,14,08,47,13.50
2018,06,14,08,48,13.50
2018,06,14,08,49,13.50
2018,06,14,08,50,13.50
2018,06,14,08,51,13.50
2018,06,14,08,52,13.40
2018,06,14,08,53,13.40
2018,06,14,08,54,13.40
2018,06,14,08,55,13.50
2018,06,14,08,56,13.50
2018,06,14,08,57,13.60
2018,06,14,08,58,13.50
2018,06,14,08,59,13.50
2018,06,14,09,00,13.60
2018,06,14,09,01,13.60
2018,06,14,09,02,13.70
2018,06,14,09,03,13.80
2018,06,14,09,04,13.90
2018,06,14,09,05,14.00
2018,06,14,09,06,14.10
2018,06,14,09,07,14.20
2018,06,14,09,08,14.30
2018,06,14,09,09,14.30
2018,06,14,09,10,14.30
2018,06,14,09,11,14.10
2018,06,14,09,12,14.00
2018,06,14,09,13,13.90
2018,06,14,09,14,13.90
2018,06,14,09,15,13.80
2018,06,14,09,16,13.80
2018,06,14,09,17,13.80
2018,06,14,09,18,13.80
2018,06,14,09,19,14.00
2018,06,14,09,20,14.10
2018,06,14,09,21,14.20
2018,06,14,09,22,14.30
2018,06,14,09,23,14.30
2018,06,14,09,24,14.30
2018,06,14,09,25,14.30
2018,06,14,09,26,14.30
2018,06,14,09,27,14.30
2018,06,14,09,28,14.30
2018,06,14,09,29,14.40
2018,06,14,09,30,14.50
2018,06,14,09,31,14.50
2018,06,14,09,32,14.50
2018,06,14,09,33,14.60
2018,06,14,09,34,14.80
2018,06,14,09,35,14.80
2018,06,14,09,36,14.80
2018,06,14,09,37,14.80
2018,06,14,09,38,14.70
2018,06,14,09,39,14.80
2018,06,14,09,40,14.80
2018,06,14,09,41,14.80
2018,06,14,09,42,14.80
2018,06,14,09,43,14.80
2018,06,14,09,44,14.80
2018,06,14,09,45,14.80
2018,06,14,09,46,14.70
2018,06,14,09,47,14.70
2018,06,14,09,48,14.60
2018,06,14,09,49,14.50
2018,06,14,09,50,14.40
2018,06,14,09,51,14.30
2018,06,14,09,52,14.20
2018,06,14,09,53,14.20
2018,06,14,09,54,14.00
2018,06,14,09,55,13.90
2018,06,14,09,56,13.90
2018,06,14,09,57,13.80
2018,06,14,09,58,13.90
2018,06,14,09,59,14.00
2018,06,14,10,00,14.00
2018,06,14,10,01,14.10
2018,06,14,10,02,14.20
2018,06,14,10,03,14.30
2018,06,14,10,04,14.40
2018,06,14,10,05,14.50
2018,06,14,10,06,14.60
2018,06,14,10,07,14.60
2018,06,14,10,08,14.50
2018,06,14,10,09,14.50
2018,06,14,10,10,14.60
2018,06,14,10,11,14.50
2018,06,14,10,12,14.60
2018,06,14,10,13,14.60
2018,06,14,10,14,14.60
2018,06,14,10,15,14.60
2018,06,14,10,16,14.60
2018,06,14,10,17,14.60
2018,06,14,10,18,14.60
2018,06,14,10,19,14.60
2018,06,14,10,20,14.60
2018,06,14,10,21,14.60
2018,06,14,10,22,14.70
2018,06,14,10,23,14.70
2018,06,14,10,24,14.70
2018,06,14,10,25,14.80
2018,06,14,10,26,14.80
2018,06,14,10,27,14.80
2018,06,14,10,28,14.80
2018,06,14,10,29,14.80
2018,06,14,10,30,14.80
2018,06,14,10,31,14.80
2018,06,14,10,32,14.80
2018,06,14,10,33,14.80
2018,06,14,10,34,14.80
2018,06,14,10,35,14.90
2018,06,14,10,36,15.00
2018,06,14,10,37,15.00
2018,06,14,10,38,15.00
2018,06,14,10,39,15.00
2018,06,14,10,40,15.00
2018,06,14,10,41,15.10
2018,06,14,10,42,15.20
2018,06,14,10,43,15.20
2018,06,14,10,44,15.20
2018,06,14,10,45,15.20
2018,06,14,10,46,15.10
2018,06,14,10,47,15.10
2018,06,14,10,48,15.00
2018,06,14,10,49,15.00
2018,06,14,10,50,15.00
2018,06,14,10,51,15.10
2018,06,14,10,52,15.20
2018,06,14,10,53,15.30
2018,06,14,10,54,15.30
2018,06,14,10,55,15.40
2018,06,14,10,56,15.40
2018,06,14,10,57,15.40
2018,06,14,10,58,15.40
2018,06,14,10,59,15.50
2018,06,14,11,00,15.50
2018,06,14,11,01,15.50
2018,06,14,11,02,15.50
2018,06,14,11,03,15.50
2018,06,14,11,04,15.50
2018,06,14,11,05,15.50
2018,06,14,11,06,15.60
2018,06,14,11,07,15.50
2018,06,14,11,08,15.60
2018,06,14,11,09,15.60
2018,06,14,11,10,15.50
2018,06,14,11,11,15.50
2018,06,14,11,12,15.40
2018,06,14,11,13,15.40
2018,06,14,11,14,15.50
2018,06,14,11,15,15.50
2018,06,14,11,16,15.60
2018,06,14,11,17,15.60
2018,06,14,11,18,15.70
2018,06,14,11,19,15.80
2018,06,14,11,20,15.80
2018,06,14,11,21,15.80
2018,06,14,11,22,15.90
2018,06,14,11,23,16.00
2018,06,14,11,24,16.00
2018,06,14,11,25,16.00
2018,06,14,11,26,16.00
2018,06,14,11,27,16.00
2018,06,14,11,28,16.00
2018,06,14,11,29,16.00
2018,06,14,11,30,16.00
2018,06,14,11,31,16.00
2018,06,14,11,32,16.00
2018,06,14,11,33,15.90
2018,06,14,11,34,15.90
2018,06,14,11,35,15.90
2018,06,14,11,36,15.80
2018,06,14,11,37,15.80
2018,06,14,11,38,15.70
2018,06,14,11,39,15.70
2018,06,14,11,40,15.70
2018,06,14,11,41,15.70
2018,06,14,11,42,15.70
2018,06,14,11,43,15.70
2018,06,14,11,44,15.90
2018,06,14,11,45,16.00
2018,06,14,11,46,16.20
2018,06,14,11,47,16.30
2018,06,14,11,48,16.40
2018,06,14,11,49,16.50
2018,06,14,11,50,16.60
2018,06,14,11,51,16.70
2018,06,14,11,52,16.80
2018,06,14,11,53,17.00
2018,06,14,11,54,17.20
2018,06,14,11,55,17.10
2018,06,14,11,56,17.10
2018,06,14,11,57,17.10
2018,06,14,11,58,17.10
2018,06,14,11,59,16.90
2018,06,14,12,00,16.90
2018,06,14,12,01,16.90
2018,06,14,12,02,16.80
2018,06,14,12,03,16.70
2018,06,14,12,04,16.70
2018,06,14,12,05,16.70
2018,06,14,12,06,16.70
2018,06,14,12,07,16.80
2018,06,14,12,08,16.90
2018,06,14,12,09,17.00
2018,06,14,12,10,16.90
2018,06,14,12,11,16.80
2018,06,14,12,12,16.60
2018,06,14,12,13,16.60
2018,06,14,12,14,16.60
2018,06,14,12,15,16.60
2018,06,14,12,16,16.60
2018,06,14,12,17,16.70
2018,06,14,12,18,16.50
2018,06,14,12,19,16.30
2018,06,14,12,20,16.20
2018,06,14,12,21,16.10
2018,06,14,12,22,16.00
2018,06,14,12,23,15.90
2018,06,14,12,24,15.90
2018,06,14,12,25,16.00
2018,06,14,12,26,16.00
2018,06,14,12,27,16.20
2018,06,14,12,28,16.40
2018,06,14,12,29,16.60
2018,06,14,12,30,16.80
2018,06,14,12,31,16.90
2018,06,14,12,32,16.90
2018,06,14,12,33,16.90
2018,06,14,12,34,16.80
2018,06,14,12,35,16.70
2018,06,14,12,36,16.70
2018,06,14,12,37,16.60
2018,06,14,12,38,16.50
2018,06,14,12,39,16.50
2018,06,14,12,40,16.50
2018,06,14,12,41,16.30
2018,06,14,12,42,16.20
2018,06,14,12,43,16.30
2018,06,14,12,44,16.30
2018,06,14,12,45,16.10
2018,06,14,12,46,16.10
2018,06,14,12,47,16.00
2018,06,14,12,48,16.00
2018,06,14,12,49,16.00
2018,06,14,12,50,15.90
2018,06,14,12,51,15.90
2018,06,14,12,52,15.80
2018,06,14,12,53,15.70
2018,06,14,12,54,15.70
2018,06,14,12,55,15.70
2018,06,14,12,56,15.70
2018,06,14,12,57,15.70
2018,06,14,12,58,15.80
2018,06,14,12,59,15.80
2018,06,14,13,00,15.80
2018,06,14,13,01,15.90
2018,06,14,13,02,15.90
2018,06,14,13,03,15.90
2018,06,14,13,04,15.90
2018,06,14,13,05,15.90
2018,06,14,13,06,15.80
2018,06,14,13,07,15.70
2018,06,14,13,08,15.70
2018,06,14,13,09,15.80
2018,06,14,13,10,16.00
2018,06,14,13,11,16.00
2018,06,14,13,12,16.10
2018,06,14,13,13,16.20
2018,06,14,13,14,16.10
2018,06,14,13,15,16.10
2018,06,14,13,16,16.10
2018,06,14,13,17,16.20
2018,06,14,13,18,16.10
2018,06,14,13,19,16.10
2018,06,14,13,20,16.10
2018,06,14,13,21,16.10
2018,06,14,13,22,16.20
2018,06,14,13,23,16.20
2018,06,14,13,24,16.20
2018,06,14,13,25,16.10
2018,06,14,13,26,16.10
2018,06,14,13,27,16.20
2018,06,14,13,28,16.40
2018,06,14,13,29,16.60
2018,06,14,13,30,16.80
2018,06,14,13,31,16.80
2018,06,14,13,32,16.70
2018,06,14,13,33,16.70
2018,06,14,13,34,16.80
2018,06,14,13,35,16.80
2018,06,14,13,36,16.80
2018,06,14,13,37,16.80
2018,06,14,13,38,16.80
2018,06,14,13,39,16.60
2018,06,14,13,40,16.60
2018,06,14,13,41,16.60
2018,06,14,13,42,16.60
2018,06,14,13,43,16.60
2018,06,14,13,44,16.50
2018,06,14,13,45,16.60
2018,06,14,13,46,16.50
2018,06,14,13,47,16.60
2018,06,14,13,48,16.70
2018,06,14,13,49,16.80
2018,06,14,13,50,16.70
2018,06,14,13,51,16.60
2018,06,14,13,52,16.70
2018,06,14,13,53,16.80
2018,06,14,13,54,17.00
2018,06,14,13,55,16.90
2018,06,14,13,56,16.90
2018,06,14,13,57,16.90
2018,06,14,13,58,16.90
2018,06,14,13,59,16.90
2018,06,14,14,00,16.80
2018,06,14,14,01,16.70
2018,06,14,14,02,16.60
2018,06,14,14,03,16.70
2018,06,14,14,04,16.70
2018,06,14,14,05,16.70
2018,06,14,14,06,16.70
2018,06,14,14,07,16.80
2018,06,14,14,08,17.00
2018,06,14,14,09,17.20
2018,06,14,14,10,17.30
2018,06,14,14,11,17.20
2018,06,14,14,12,17.30
2018,06,14,14,13,17.30
2018,06,14,14,14,17.30
2018,06,14,14,15,17.30
2018,06,14,14,16,17.20
2018,06,14,14,17,17.20
2018,06,14,14,18,17.30
2018,06,14,14,19,17.20
2018,06,14,14,20,17.10
2018,06,14,14,21,17.00
2018,06,14,14,22,17.10
2018,06,14,14,23,17.30
2018,06,14,14,24,17.50
2018,06,14,14,25,17.50
2018,06,14,14,26,17.60
2018,06,14,14,27,17.70
2018,06,14,14,28,17.60
2018,06,14,14,29,17.50
2018,06,14,14,30,17.40
2018,06,14,14,31,17.20
2018,06,14,14,32,17.20
2018,06,14,14,33,17.20
2018,06,14,14,34,17.10
2018,06,14,14,35,17.10
2018,06,14,14,36,17.10
2018,06,14,14,37,17.10
2018,06,14,14,38,17.10
2018,06,14,14,39,17.00
2018,06,14,14,40,17.10
2018,06,14,14,41,17.00
2018,06,14,14,42,17.00
2018,06,14,14,43,16.90
2018,06,14,14,44,16.80
2018,06,14,14,45,16.80
2018,06,14,14,46,16.80
2018,06,14,14,47,16.80
2018,06,14,14,48,16.70
2018,06,14,14,49,16.80
2018,06,14,14,50,16.80
2018,06,14,14,51,16.80
2018,06,14,14,52,16.80
2018,06,14,14,53,16.80
2018,06,14,14,54,16.80
2018,06,14,14,55,16.80
2018,06,14,14,56,16.80
2018,06,14,14,57,16.90
2018,06,14,14,58,16.90
2018,06,14,14,59,17.00
2018,06,14,15,00,17.10
2018,06,14,15,01,17.10
2018,06,14,15,02,17.10
2018,06,14,15,03,16.90
2018,06,14,15,04,16.80
2018,06,14,15,05,16.70
2018,06,14,15,06,16.60
2018,06,14,15,07,16.60
2018,06,14,15,08,16.70
2018,06,14,15,09,16.70
2018,06,14,15,10,16.70
2018,06,14,15,11,16.70
2018,06,14,15,12,16.70
2018,06,14,15,13,16.80
2018,06,14,15,14,16.80
2018,06,14,15,15,16.90
2018,06,14,15,16,16.90
2018,06,14,15,17,16.90
2018,06,14,15,18,16.80
2018,06,14,15,19,16.90
2018,06,14,15,20,16.90
2018,06,14,15,21,16.90
2018,06,14,15,22,16.90
2018,06,14,15,23,16.80
2018,06,14,15,24,16.80
2018,06,14,15,25,16.80
2018,06,14,15,26,16.80
2018,06,14,15,27,16.80
2018,06,14,15,28,16.80
2018,06,14,15,29,16.80
2018,06,14,15,30,16.70
2018,06,14,15,31,16.70
2018,06,14,15,32,16.80
2018,06,14,15,33,16.80
2018,06,14,15,34,16.80
2018,06,14,15,35,16.90
2018,06,14,15,36,16.90
2018,06,14,15,37,16.90
2018,06,14,15,38,16.80
2018,06,14,15,39,16.70
2018,06,14,15,40,16.60
2018,06,14,15,41,16.60
2018,06,14,15,42,16.70
2018,06,14,15,43,16.70
2018,06,14,15,44,16.70
2018,06,14,15,45,16.80
2018,06,14,15,46,16.70
2018,06,14,15,47,16.70
2018,06,14,15,48,16.70
2018,06,14,15,49,16.80
2018,06,14,15,50,16.80
2018,06,14,15,51,16.80
2018,06,14,15,52,16.80
2018,06,14,15,53,16.80
2018,06,14,15,54,16.80
2018,06,14,15,55,16.80
2018,06,14,15,56,16.70
2018,06,14,15,57,16.70
2018,06,14,15,58,16.80
2018,06,14,15,59,16.80
2018,06,14,16,00,16.80
2018,06,14,16,01,16.80
2018,06,14,16,02,16.90
2018,06,14,16,03,17.00
2018,06,14,16,04,17.00
2018,06,14,16,05,17.10
2018,06,14,16,06,17.00
2018,06,14,16,07,16.90
2018,06,14,16,08,16.80
2018,06,14,16,09,16.80
2018,06,14,16,10,16.80
2018,06,14,16,11,16.70
2018,06,14,16,12,16.80
2018,06,14,16,13,16.80
2018,06,14,16,14,16.80
2018,06,14,16,15,16.80
2018,06,14,16,16,16.90
2018,06,14,16,17,16.90
2018,06,14,16,18,16.90
2018,06,14,16,19,17.00
2018,06,14,16,20,17.10
2018,06,14,16,21,17.20
2018,06,14,16,22,17.20
2018,06,14,16,23,17.20
2018,06,14,16,24,17.10
2018,06,14,16,25,17.10
2018,06,14,16,26,17.10
2018,06,14,16,27,17.20
2018,06,14,16,28,17.30
2018,06,14,16,29,17.30
2018,06,14,16,30,17.40
2018,06,14,16,31,17.50
2018,06,14,16,32,17.50
2018,06,14,16,33,17.40
2018,06,14,16,34,17.30
2018,06,14,16,35,17.30
2018,06,14,16,36,17.30
2018,06,14,16,37,17.30
2018,06,14,16,38,17.30
2018,06,14,16,39,17.20
2018,06,14,16,40,17.10
2018,06,14,16,41,17.00
2018,06,14,16,42,16.90
2018,06,14,16,43,16.90
2018,06,14,16,44,16.90
2018,06,14,16,45,16.90
2018,06,14,16,46,16.90
2018,06,14,16,47,16.90
2018,06,14,16,48,16.90
2018,06,14,16,49,16.90
2018,06,14,16,50,16.80
2018,06,14,16,51,16.90
2018,06,14,16,52,16.90
2018,06,14,16,53,16.90
2018,06,14,16,54,16.80
2018,06,14,16,55,16.80
2018,06,14,16,56,16.70
2018,06,14,16,57,16.70
2018,06,14,16,58,16.60
2018,06,14,16,59,16.50
2018,06,14,17,00,16.50
2018,06,14,17,01,16.40
2018,06,14,17,02,16.50
2018,06,14,17,03,16.50
2018,06,14,17,04,16.60
2018,06,14,17,05,16.60
2018,06,14,17,06,16.60
2018,06,14,17,07,16.70
2018,06,14,17,08,16.70
2018,06,14,17,09,16.80
2018,06,14,17,10,16.80
2018,06,14,17,11,16.80
2018,06,14,17,12,16.80
2018,06,14,17,13,16.70
2018,06,14,17,14,16.70
2018,06,14,17,15,16.80
2018,06,14,17,16,16.80
2018,06,14,17,17,16.90
2018,06,14,17,18,16.90
2018,06,14,17,19,16.90
2018,06,14,17,20,16.90
2018,06,14,17,21,16.90
2018,06,14,17,22,16.90
2018,06,14,17,23,16.80
2018,06,14,17,24,16.80
2018,06,14,17,25,16.80
2018,06,14,17,26,16.80
2018,06,14,17,27,16.80
2018,06,14,17,28,16.80
2018,06,14,17,29,16.70
2018,06,14,17,30,16.70
2018,06,14,17,31,16.70
2018,06,14,17,32,16.70
2018,06,14,17,33,16.80
2018,06,14,17,34,16.80